TimeCST,TemperatureF,Dew PointF,Humidity,Sea Level PressureIn,VisibilityMPH,Wind Direction,Wind SpeedMPH,Gust SpeedMPH,PrecipitationIn,Events,Conditions,WindDirDegrees,DateUTC
12:53 AM,8.1,5.0,87,30.29,10.0,South,5.8,-,N/A,,Clear,170,2011-11-21 06:53:00
1:53 AM,8.1,5.0,87,30.27,10.0,SE,5.8,-,N/A,,Clear,140,2011-11-21 07:53:00
2:53 AM,7.0,5.0,92,30.28,10.0,Calm,Calm,-,N/A,,Clear,0,2011-11-21 08:53:00
3:53 AM,7.0,3.9,87,30.26,10.0,SSE,6.9,-,N/A,,Clear,150,2011-11-21 09:53:00
4:53 AM,7.0,3.9,87,30.27,10.0,Calm,Calm,-,N/A,,Clear,0,2011-11-21 10:53:00
5:53 AM,5.0,1.9,87,30.27,10.0,SE,3.5,-,N/A,,Clear,130,2011-11-21 11:53:00
6:53 AM,6.1,3.0,87,30.27,10.0,SSE,3.5,-,N/A,,Clear,160,2011-11-21 12:53:00
7:53 AM,6.1,3.0,87,30.28,8.0,SSE,4.6,-,N/A,,Clear,150,2011-11-21 13:53:00
8:53 AM,10.0,7.0,87,30.29,10.0,South,4.6,-,N/A,,Clear,170,2011-11-21 14:53:00
9:53 AM,15.1,12.0,88,30.29,8.0,SSE,3.5,-,N/A,,Clear,150,2011-11-21 15:53:00
10:53 AM,19.9,15.1,81,30.28,5.0,SSE,6.9,-,N/A,,Haze,150,2011-11-21 16:53:00
11:53 AM,24.1,18.0,77,30.27,10.0,SSE,6.9,-,N/A,,Clear,150,2011-11-21 17:53:00
12:53 PM,27.0,19.0,72,30.25,10.0,SE,3.5,-,N/A,,Clear,140,2011-11-21 18:53:00
1:53 PM,28.9,19.9,69,30.23,10.0,SE,6.9,-,N/A,,Clear,130,2011-11-21 19:53:00
2:53 PM,30.0,21.0,69,30.21,10.0,SE,8.1,-,N/A,,Clear,130,2011-11-21 20:53:00
3:53 PM,28.0,19.9,72,30.23,10.0,SE,10.4,-,N/A,,Clear,140,2011-11-21 21:53:00
4:53 PM,24.1,19.0,81,30.24,10.0,SE,8.1,-,N/A,,Clear,140,2011-11-21 22:53:00
5:53 PM,21.0,19.0,92,30.23,8.0,SE,10.4,-,N/A,,Partly Cloudy,140,2011-11-21 23:53:00
6:09 PM,21.2,19.4,93,30.14,7.0,SSE,9.2,-,N/A,,Mostly Cloudy,150,2011-11-22 00:09:00
6:53 PM,21.9,19.9,92,30.24,6.0,SSE,10.4,-,N/A,,Overcast,150,2011-11-22 00:53:00
7:08 PM,21.2,19.4,93,30.14,5.0,SSE,11.5,-,N/A,,Overcast,150,2011-11-22 01:08:00
7:53 PM,21.9,19.9,92,30.25,5.0,SSE,10.4,-,N/A,,Overcast,150,2011-11-22 01:53:00
8:53 PM,23.0,21.0,92,30.27,3.0,SSE,13.8,-,N/A,,Overcast,150,2011-11-22 02:53:00
9:35 PM,24.8,23.0,93,30.16,2.5,SE,6.9,-,N/A,,Overcast,140,2011-11-22 03:35:00
9:51 PM,24.8,23.0,93,30.15,1.5,SE,6.9,-,N/A,,Overcast,140,2011-11-22 03:51:00
9:53 PM,24.1,23.0,96,30.24,1.5,SE,6.9,-,N/A,,Overcast,140,2011-11-22 03:53:00
10:53 PM,25.0,24.1,96,30.21,1.2,SE,4.6,-,N/A,,Overcast,130,2011-11-22 04:53:00
11:53 PM,26.1,25.0,96,30.21,1.8,South,11.5,-,N/A,,Overcast,170,2011-11-22 05:53:00